Regional Weather Roundup
Issued by NWS

Home | Current Version | Previous Version | Graphics & Text | Print | Product List | Glossary On
Versions: 1 2 3 4 5 6 7 8 9 10 11 12 13 14 15 16 17 18 19 20 21 22 23 24 25 26 27 28 29 30 31 32 33 34 35 36 37 38 39 40 41 42 43 44 45 46 47 48 49 50
000
ASUS43 KMKX 200300
RWRWI

WISCONSIN REGIONAL WEATHER ROUNDUP
NATIONAL WEATHER SERVICE MILWAUKEE/SULLIVAN WI
1000 PM CDT SUN OCT 19 2014

NOTE: "FAIR" INDICATES FEW OR NO CLOUDS BELOW 12,000 FEET WITH NO
SIGNIFICANT WEATHER AND/OR OBSTRUCTIONS TO VISIBILITY.

WIZ001-002-006>008-014>016-023>028-200400-
NORTHWEST WISCONSIN

CITY           SKY/WX    TMP DP  RH WIND       PRES   REMARKS
SUPERIOR ARPT  MOCLDY    54  43  65 N9        29.79R
ASHLAND        CLOUDY    51  44  77 W6        29.76R
HAYWARD        PTCLDY    42  40  92 CALM      29.78R
SIREN          CLEAR     52  42  68 NW6       29.80R
CUMBERLAND     CLEAR     43  39  87 W7        29.77S
RICE LAKE      MOCLDY    43  41  93 CALM      29.78S
CHETEK         CLEAR     43  42  97 CALM      29.77S
LADYSMITH      CLEAR     41  38  92 CALM      29.78S
EAU CLAIRE     NOT AVBL
MENOMONIE      CLEAR     45  42  86 W3        29.78R
NEW RICHMOND   CLEAR     52  43  71 W7        29.80R
OSCEOLA        CLEAR     56  43  61 NW7       29.83R
$$

WIZ003>005-009-010-017-018-200400-
NORTH CENTRAL WISCONSIN

CITY           SKY/WX    TMP DP  RH WIND       PRES   REMARKS
MANITOWISH WTR CLOUDY    40  40 100 CALM      29.75S
ARBOR VITAE    PTCLDY    43  40  91 CALM      29.76S
WOODRUFF       PTCLDY    43  40  91 CALM      29.76S
RHINELANDER    CLEAR     43  41  93 W3        29.76F
EAGLE RIVER    CLOUDY    40  40  99 SW3       29.75S
LAND O LAKES   CLOUDY    46  42  86 CALM      29.76S
PHILLIPS       CLEAR     40  40  99 CALM      29.75F
TOMAHAWK       CLEAR     38  37  96 CALM      29.77F
MEDFORD        CLEAR     40  39  97 CALM      29.77F
MERRILL        FOG       38  38 100 CALM      29.78S VSB 1
$$

WIZ029-030-035-036-043>047-200400-
CENTRAL WISCONSIN

CITY           SKY/WX    TMP DP  RH WIND       PRES   REMARKS
WAUSAU         CLEAR     46  42  86 CALM      29.76F
MOSINEE        CLEAR     45  43  93 S3        29.78F
MARSHFIELD     CLEAR     49  43  80 SW6       29.77F
STEVENS POINT  CLEAR     47  42  83 SW6       29.79F
WAUPACA        PTCLDY    51  45  78 S6        29.79F
WAUTOMA        NOT AVBL
WISC RAPIDS    CLEAR     49  43  80 SW5       29.80S
CAMP DOUGLAS   NOT AVBL
$$

WIZ011>013-019>022-031-037>040-048>050-200400-
NORTHEAST WISCONSIN

CITY           SKY/WX    TMP DP  RH WIND       PRES   REMARKS
ANTIGO         CLEAR     40  40 100 CALM      29.78S
SHAWANO        CLOUDY    50  44  78 CALM      29.79S
OCONTO         CLOUDY    51  43  75 SW5       29.78F
STURGEON BAY   CLOUDY    50  41  71 S9        29.79F
GREEN BAY      PTCLDY    50  44  80 S6        29.79F
MANITOWOC      NOT AVBL
APPLETON       MOCLDY    48  43  81 S10       29.80F
CLINTONVILLE   MOCLDY    46  41  81 S3        29.79F
OSHKOSH        PTCLDY    51  43  74 S12       29.80F
$$

WIZ032>034-041-042-053>061-200400-
SOUTHWEST WISCONSIN

CITY           SKY/WX    TMP DP  RH WIND       PRES   REMARKS
LA CROSSE      CLEAR     58  46  64 SE10      29.79S
SPARTA         CLEAR     52  43  70 S3        29.81S
VIROQUA        CLEAR     52  45  75 SW6       29.82S
BOSCOBEL       CLEAR     53  43  68 SW7       29.84F
PRAIRIE DU CHI CLEAR     55  43  62 CALM      29.84F
PLATTEVILLE    CLEAR     49  43  80 CALM      29.88F
$$

WIZ056-057-062-063-064-067-068-200400-
SOUTH CENTRAL WISCONSIN

CITY           SKY/WX    TMP DP  RH WIND       PRES   REMARKS
REEDSBURG      PTCLDY    53  43  70 SW10      29.81F
BARABOO/DELLS  PTCLDY    53  41  64 SW13G18   29.81F
LONE ROCK      NOT AVBL
MINERAL POINT  CLEAR     50  43  76 S8        29.86F
MADISON        PTCLDY    53  42  66 SW7       29.85F
MIDDLETON      PTCLDY    52  41  66 SW9       29.85F
WATERTOWN      CLOUDY    49  42  79 S5        29.86F
MONROE         PTCLDY    50  43  76 S13       29.88F
JANESVILLE     MOCLDY    52  41  66 SW7       29.89F
$$

WIZ051-052-058>065-066-070>072-200400-
SOUTHEAST WISCONSIN

CITY           SKY/WX    TMP DP  RH WIND       PRES   REMARKS
MILWAUKEE      LGT RAIN  51  41  68 SW14      29.88F
WAUKESHA       MOCLDY    46  41  81 SW10G16   29.88F
MILWAUKEE/TIMM LGT RAIN  50  41  71 SW10      29.87
RACINE         CLOUDY    51  42  71 SW10      29.90F
BURLINGTON     CLOUDY    49  41  73 SW8       29.89F
KENOSHA        MOCLDY    51  43  74 SW9       29.90F
FOND DU LAC    MOCLDY    52  41  66 SW13      29.82F
SHEBOYGAN      LGT RAIN  51  44  77 SW12      29.83F
WEST BEND      CLOUDY    50  37  62 SW8       29.85F
JUNEAU         LGT RAIN  50  42  73 S13       29.86F
$$

LSZ147-162-200400-
LAKE SUPERIOR

STATION/POSITION TIME  TEMP    WIND        PRES    WAVE
                       AIR SEA DIR/SP/G            HT/PER
                 (UTC) (F)     (DEG/KT/KT) (MB)    (FT/S)
W MID LAKE BUOY  0150   47 46   60/  2/  2 1007.1F   1/ 4
DEVILS ISLAND    0200   54     240/  6/  6 1007.0S
PORT WING        0200   54     280/ 10/ 13 1007.8R
SAXON HARBOR     0200   52     200/  6/  9 1006.8S
$$

LMZ867-665-643>646-200400-
LAKE MICHIGAN

STATION/POSITION TIME  TEMP    WIND        PRES    WAVE
                       AIR SEA DIR/SP/G            HT/PER
                 (UTC) (F)     (DEG/KT/KT) (MB)    (FT/S)
CHAMBERS ISLAND  0200   53     190/  7/ 13 1009.1F
N MID LAKE BUOY  0150   51 51  200/ 21/ 25 1009.2F   8/ 7
NORTHPORT PIER   0200   52     170/  5/  9 1009.1F
KEWAUNEE LAKESHO 0200   50     190/  6/  6 1009.1F
SHEBOYGAN LAKESH 0200   53 50  200/ 12/ 14 1011.3F
PORT WASHINGTON  0200   53     210/  7/ 10 1011.9F
ATWATER BUOY     0200   53     210/ 12/ 16 1013.1F
MILWAUKEE LAKESH 0200   53     220/ 11/ 13   N/A
S MID LAKE BUOY  0150   54 55  200/ 21/ 27 1012.5F   5/ 5
KENOSHA   LAKESH 0200   52     220/  9/ 13 1012.9S
$$

TC  - TEMPERATURE IN CELSIUS
VSB - VISIBILITY IN STATUTE MILES
WCI - WIND CHILL INDEX
HX  - HEAT INDEX



USA.gov is the U.S. government's official web portal to all federal, state and local government web resources and services.